Location: *
(50.5492°N, 7.7469°E)
Time: 06:08:30
(UTC+00:00)

STARLINK-30 - Pass Details

Date: 21 October 2019
Orbit: 548 x 551 km, 53.0° (Epoch: 13 November)

Event Time Altitude Azimuth Distance (km) Brightness Sun altitude
Rises 16:47:27 0° 260° (W) 2,714 10.4 -4.2°
Reaches altitude 10° 16:49:41 10° 263° (W) 1,822 8.2 -4.5°
Maximum altitude 16:53:49 71° 348° (NNW) 586 3.8 -5.2°
Drops below altitude 10° 16:57:58 10° 72° (ENE) 1,826 5.6 -5.8°
Enters shadow 16:58:31 - 73° (ENE) 2,048 5.8 -5.9°
